Time,TemperatureF,DewpointF,PressureIn,WindDirection,WindDirectionDegrees,WindSpeedMPH,WindSpeedGustMPH,Humidity,HourlyPrecipIn,Conditions,Clouds,dailyrainin,SoftwareType,DateUTC
2013-05-25 00:02:00,48.0,38.0,-100.00,North,354,3.0,4.0,67,0.00,,,0.35,,2013-05-25 04:02:00,
2013-05-25 00:13:00,48.0,38.0,-100.00,North,354,3.0,4.0,67,0.00,,,0.35,,2013-05-25 04:13:00,
2013-05-25 00:23:00,49.0,38.0,-100.00,NNW,337,2.0,4.0,66,0.00,,,0.35,,2013-05-25 04:23:00,
2013-05-25 00:33:00,49.0,38.0,-100.00,NNW,337,2.0,4.0,66,0.00,,,0.35,,2013-05-25 04:33:00,
2013-05-25 00:43:00,49.0,38.0,-100.00,NNW,337,2.0,4.0,66,0.00,,,0.35,,2013-05-25 04:43:00,
2013-05-25 00:53:00,48.0,38.0,-100.00,NNE,28,2.0,3.0,68,0.00,,,0.35,,2013-05-25 04:53:00,
2013-05-25 01:02:00,47.0,38.0,-100.00,NNE,28,3.0,4.0,70,0.00,,,0.33,,2013-05-25 05:02:00,
2013-05-25 01:12:00,47.0,38.0,-100.00,NNE,28,3.0,4.0,70,0.00,,,0.33,,2013-05-25 05:12:00,
2013-05-25 01:22:00,47.0,39.0,-100.00,NNE,21,3.0,4.0,72,0.00,,,0.33,,2013-05-25 05:22:00,
2013-05-25 01:32:00,47.0,39.0,-100.00,North,0,3.0,5.0,73,0.00,,,0.33,,2013-05-25 05:32:00,
2013-05-25 01:43:00,47.0,39.0,-100.00,North,0,3.0,5.0,73,0.00,,,0.33,,2013-05-25 05:43:00,
2013-05-25 01:52:00,47.0,39.0,-100.00,NE,41,2.0,4.0,72,0.00,,,0.33,,2013-05-25 05:52:00,
2013-05-25 02:02:00,46.0,39.0,-100.00,NE,38,4.0,4.0,75,0.00,,,0.33,,2013-05-25 06:02:00,
2013-05-25 02:12:00,46.0,39.0,-100.00,NE,38,4.0,4.0,75,0.00,,,0.33,,2013-05-25 06:12:00,
2013-05-25 02:22:00,47.0,38.0,-100.00,ENE,78,5.0,9.0,70,0.00,,,0.33,,2013-05-25 06:22:00,
2013-05-25 02:32:00,47.0,38.0,-100.00,East,92,4.0,6.0,69,0.00,,,0.33,,2013-05-25 06:32:00,
2013-05-25 02:42:00,47.0,38.0,-100.00,East,92,4.0,6.0,69,0.00,,,0.33,,2013-05-25 06:42:00,
2013-05-25 02:52:00,47.0,38.0,-100.00,ENE,78,5.0,7.0,69,0.00,,,0.33,,2013-05-25 06:52:00,
2013-05-25 03:01:00,46.0,39.0,-100.00,NE,35,4.0,6.0,74,0.00,,,0.32,,2013-05-25 07:01:00,
2013-05-25 03:11:00,46.0,39.0,-100.00,NE,35,4.0,6.0,74,0.00,,,0.32,,2013-05-25 07:11:00,
2013-05-25 03:22:00,46.0,38.0,-100.00,NW,315,2.0,4.0,73,0.00,,,0.28,,2013-05-25 07:22:00,
2013-05-25 03:32:00,46.0,37.0,-100.00,NE,48,3.0,4.0,72,0.00,,,0.27,,2013-05-25 07:32:00,
2013-05-25 03:42:00,46.0,37.0,-100.00,NE,48,3.0,4.0,72,0.00,,,0.27,,2013-05-25 07:42:00,
2013-05-25 03:52:00,46.0,37.0,-100.00,ENE,59,4.0,6.0,71,0.00,,,0.26,,2013-05-25 07:52:00,
2013-05-25 04:02:00,47.0,37.0,-100.00,ENE,73,4.0,6.0,67,0.00,,,0.19,,2013-05-25 08:02:00,
2013-05-25 04:11:00,47.0,37.0,-100.00,ENE,73,4.0,6.0,67,0.00,,,0.19,,2013-05-25 08:11:00,
2013-05-25 04:23:00,47.0,36.0,-100.00,NE,49,4.0,6.0,68,0.00,,,0.10,,2013-05-25 08:23:00,
2013-05-25 04:32:00,47.0,36.0,-100.00,NE,49,4.0,6.0,68,0.00,,,0.10,,2013-05-25 08:32:00,
2013-05-25 04:42:00,47.0,36.0,-100.00,NE,49,4.0,6.0,68,0.00,,,0.10,,2013-05-25 08:42:00,
2013-05-25 04:52:00,46.0,37.0,-100.00,NE,41,3.0,4.0,71,0.00,,,0.10,,2013-05-25 08:52:00,
2013-05-25 05:02:00,46.0,37.0,-100.00,NE,40,4.0,5.0,70,0.00,,,0.08,,2013-05-25 09:02:00,
2013-05-25 05:11:00,46.0,37.0,-100.00,NE,40,4.0,5.0,70,0.00,,,0.08,,2013-05-25 09:11:00,
2013-05-25 05:21:00,47.0,36.0,-100.00,NE,49,4.0,6.0,67,0.00,,,0.07,,2013-05-25 09:21:00,
2013-05-25 05:33:00,46.0,36.0,-100.00,NE,38,3.0,4.0,69,0.00,,,0.07,,2013-05-25 09:33:00,
2013-05-25 05:43:00,46.0,36.0,-100.00,NE,38,3.0,4.0,69,0.00,,,0.07,,2013-05-25 09:43:00,
2013-05-25 05:53:00,46.0,36.0,-100.00,NE,38,3.0,4.0,69,0.00,,,0.07,,2013-05-25 09:53:00,
2013-05-25 06:03:00,45.0,37.0,-100.00,NE,38,3.0,5.0,74,0.00,,,0.06,,2013-05-25 10:03:00,
2013-05-25 06:13:00,45.0,37.0,-100.00,NE,38,3.0,5.0,74,0.00,,,0.06,,2013-05-25 10:13:00,
2013-05-25 06:23:00,46.0,36.0,-100.00,NE,44,4.0,5.0,69,0.00,,,0.05,,2013-05-25 10:23:00,
2013-05-25 06:33:00,46.0,36.0,-100.00,NNE,17,3.0,4.0,70,0.00,,,0.04,,2013-05-25 10:33:00,
2013-05-25 06:42:00,46.0,36.0,-100.00,NNE,17,3.0,4.0,70,0.00,,,0.04,,2013-05-25 10:42:00,
2013-05-25 06:52:00,43.0,38.0,-100.00,WSW,244,2.0,2.0,81,0.00,,,0.02,,2013-05-25 10:52:00,
2013-05-25 07:03:00,42.0,38.0,-100.00,SSW,210,0.0,1.0,85,0.00,,,0.02,,2013-05-25 11:03:00,
2013-05-25 07:12:00,42.0,38.0,-100.00,SSW,210,0.0,1.0,85,0.00,,,0.02,,2013-05-25 11:12:00,
2013-05-25 07:22:00,42.0,38.0,-100.00,NNE,25,2.0,3.0,85,0.00,,,0.02,,2013-05-25 11:22:00,
2013-05-25 07:32:00,44.0,38.0,-100.00,NNW,329,2.0,4.0,79,0.00,,,0.02,,2013-05-25 11:32:00,
2013-05-25 07:42:00,44.0,38.0,-100.00,NNW,329,2.0,4.0,79,0.00,,,0.02,,2013-05-25 11:42:00,
2013-05-25 07:52:00,45.0,38.0,-100.00,NW,319,1.0,2.0,77,0.00,,,0.02,,2013-05-25 11:52:00,
2013-05-25 08:01:00,45.0,38.0,-100.00,NW,319,1.0,2.0,77,0.00,,,0.02,,2013-05-25 12:01:00,
2013-05-25 08:12:00,47.0,40.0,-100.00,NE,37,1.0,2.0,76,0.00,,,0.02,,2013-05-25 12:12:00,
2013-05-25 08:22:00,47.0,40.0,-100.00,NE,37,1.0,2.0,76,0.00,,,0.02,,2013-05-25 12:22:00,
2013-05-25 08:32:00,52.0,42.0,-100.00,WSW,254,0.0,1.0,67,0.00,,,0.01,,2013-05-25 12:32:00,
2013-05-25 08:42:00,52.0,42.0,-100.00,ESE,112,0.0,1.0,69,0.00,,,0.01,,2013-05-25 12:42:00,
2013-05-25 08:52:00,52.0,42.0,-100.00,ESE,112,0.0,1.0,69,0.00,,,0.01,,2013-05-25 12:52:00,
2013-05-25 09:02:00,52.0,43.0,-100.00,SSE,152,0.0,2.0,72,0.00,,,0.01,,2013-05-25 13:02:00,
2013-05-25 09:11:00,52.0,43.0,-100.00,SSE,152,0.0,2.0,72,0.00,,,0.01,,2013-05-25 13:11:00,
2013-05-25 09:22:00,55.0,45.0,-100.00,SSW,196,0.0,1.0,70,0.00,,,0.00,,2013-05-25 13:22:00,
2013-05-25 09:32:00,53.0,42.0,-100.00,SSW,213,0.0,2.0,68,0.00,,,0.00,,2013-05-25 13:32:00,
2013-05-25 09:42:00,53.0,42.0,-100.00,SSW,213,0.0,2.0,68,0.00,,,0.00,,2013-05-25 13:42:00,
2013-05-25 09:52:00,55.0,44.0,-100.00,SE,141,0.0,2.0,68,0.00,,,0.00,,2013-05-25 13:52:00,
2013-05-25 10:02:00,55.0,45.0,-100.00,ESE,113,0.0,2.0,69,0.00,,,0.00,,2013-05-25 14:02:00,
2013-05-25 10:11:00,55.0,45.0,-100.00,ESE,113,0.0,2.0,69,0.00,,,0.00,,2013-05-25 14:11:00,
2013-05-25 10:22:00,55.0,40.0,-100.00,SSW,193,2.0,3.0,58,0.00,,,0.00,,2013-05-25 14:22:00,
2013-05-25 10:32:00,56.0,43.0,-100.00,SE,126,2.0,3.0,61,0.00,,,0.00,,2013-05-25 14:32:00,
2013-05-25 10:42:00,56.0,43.0,-100.00,SE,126,2.0,3.0,61,0.00,,,0.00,,2013-05-25 14:42:00,
2013-05-25 10:52:00,57.0,41.0,-100.00,South,184,2.0,3.0,56,0.00,,,0.00,,2013-05-25 14:52:00,
2013-05-25 11:01:00,58.0,43.0,-100.00,SSW,202,1.0,2.0,57,0.00,,,0.00,,2013-05-25 15:01:00,
2013-05-25 11:12:00,58.0,43.0,-100.00,SSW,202,1.0,2.0,57,0.00,,,0.00,,2013-05-25 15:12:00,
2013-05-25 11:22:00,58.0,40.0,-100.00,SW,226,2.0,4.0,50,0.00,,,0.00,,2013-05-25 15:22:00,
2013-05-25 11:33:00,59.0,45.0,-100.00,SE,137,2.0,3.0,59,0.00,,,0.00,,2013-05-25 15:33:00,
2013-05-25 11:43:00,59.0,45.0,-100.00,SE,137,2.0,3.0,59,0.00,,,0.00,,2013-05-25 15:43:00,
2013-05-25 11:53:00,61.0,42.0,-100.00,SW,227,2.0,5.0,49,0.00,,,0.00,,2013-05-25 15:53:00,
2013-05-25 12:03:00,59.0,42.0,-100.00,SSW,205,2.0,6.0,52,0.00,,,0.00,,2013-05-25 16:03:00,
2013-05-25 12:12:00,59.0,42.0,-100.00,SSW,205,2.0,6.0,52,0.00,,,0.00,,2013-05-25 16:12:00,
2013-05-25 12:23:00,59.0,43.0,-100.00,South,191,2.0,5.0,55,0.00,,,0.00,,2013-05-25 16:23:00,
2013-05-25 12:32:00,61.0,41.0,-100.00,SW,227,3.0,6.0,47,0.00,,,0.00,,2013-05-25 16:32:00,
2013-05-25 12:42:00,61.0,41.0,-100.00,SW,227,3.0,6.0,47,0.00,,,0.00,,2013-05-25 16:42:00,
2013-05-25 12:52:00,62.0,42.0,-100.00,SE,138,2.0,4.0,47,0.00,,,0.00,,2013-05-25 16:52:00,
2013-05-25 13:03:00,61.0,43.0,-100.00,SE,138,2.0,4.0,50,0.00,,,0.00,,2013-05-25 17:03:00,
2013-05-25 13:11:00,61.0,43.0,-100.00,SE,138,2.0,4.0,50,0.00,,,0.00,,2013-05-25 17:11:00,
2013-05-25 13:22:00,61.0,41.0,-100.00,South,175,2.0,3.0,47,0.00,,,0.00,,2013-05-25 17:22:00,
2013-05-25 13:32:00,64.0,46.0,-100.00,SW,216,2.0,5.0,52,0.00,,,0.00,,2013-05-25 17:32:00,
2013-05-25 13:42:00,64.0,46.0,-100.00,SW,216,2.0,5.0,52,0.00,,,0.00,,2013-05-25 17:42:00,
2013-05-25 13:52:00,63.0,37.0,-100.00,East,83,6.0,7.0,38,0.00,,,0.00,,2013-05-25 17:52:00,
2013-05-25 14:02:00,64.0,37.0,-100.00,East,82,4.0,5.0,37,0.00,,,0.00,,2013-05-25 18:02:00,
2013-05-25 14:11:00,64.0,37.0,-100.00,East,82,4.0,5.0,37,0.00,,,0.00,,2013-05-25 18:11:00,
2013-05-25 14:22:00,64.0,40.0,-100.00,SE,138,3.0,7.0,40,0.00,,,0.00,,2013-05-25 18:22:00,
2013-05-25 14:32:00,64.0,32.0,-100.00,SE,127,2.0,4.0,29,0.00,,,0.00,,2013-05-25 18:32:00,
2013-05-25 14:42:00,64.0,32.0,-100.00,SE,127,2.0,4.0,29,0.00,,,0.00,,2013-05-25 18:42:00,
2013-05-25 14:52:00,64.0,32.0,-100.00,SE,127,2.0,4.0,29,0.00,,,0.00,,2013-05-25 18:52:00,
2013-05-25 15:02:00,62.0,41.0,-100.00,SE,140,3.0,7.0,46,0.00,,,0.00,,2013-05-25 19:02:00,
2013-05-25 15:11:00,62.0,41.0,-100.00,SE,140,3.0,7.0,46,0.00,,,0.00,,2013-05-25 19:11:00,
2013-05-25 15:22:00,63.0,38.0,-100.00,East,90,2.0,3.0,39,0.00,,,0.00,,2013-05-25 19:22:00,
2013-05-25 15:32:00,63.0,40.0,-100.00,South,188,2.0,4.0,43,0.00,,,0.00,,2013-05-25 19:32:00,
2013-05-25 15:42:00,63.0,40.0,-100.00,South,188,2.0,4.0,43,0.00,,,0.00,,2013-05-25 19:42:00,
2013-05-25 15:52:00,64.0,35.0,-100.00,ESE,114,3.0,7.0,35,0.00,,,0.00,,2013-05-25 19:52:00,
2013-05-25 16:02:00,63.0,39.0,-100.00,ENE,58,6.0,9.0,41,0.00,,,0.00,,2013-05-25 20:02:00,
2013-05-25 16:11:00,63.0,39.0,-100.00,ENE,58,6.0,9.0,41,0.00,,,0.00,,2013-05-25 20:11:00,
2013-05-25 16:22:00,64.0,39.0,-100.00,South,179,3.0,6.0,39,0.00,,,0.00,,2013-05-25 20:22:00,
2013-05-25 16:32:00,64.0,42.0,-100.00,ESE,120,4.0,8.0,44,0.00,,,0.00,,2013-05-25 20:32:00,
2013-05-25 16:42:00,64.0,42.0,-100.00,ESE,120,4.0,8.0,44,0.00,,,0.00,,2013-05-25 20:42:00,
2013-05-25 16:52:00,63.0,39.0,-100.00,ESE,121,2.0,5.0,40,0.00,,,0.00,,2013-05-25 20:52:00,
2013-05-25 17:02:00,63.0,33.0,-100.00,ESE,117,1.0,3.0,33,0.00,,,0.00,,2013-05-25 21:02:00,
2013-05-25 17:11:00,63.0,33.0,-100.00,ESE,117,1.0,3.0,33,0.00,,,0.00,,2013-05-25 21:11:00,
2013-05-25 17:22:00,62.0,39.0,-100.00,SE,145,1.0,4.0,44,0.00,,,0.00,,2013-05-25 21:22:00,
2013-05-25 17:33:00,62.0,34.0,-100.00,ESE,119,3.0,4.0,34,0.00,,,0.00,,2013-05-25 21:33:00,
2013-05-25 17:43:00,62.0,34.0,-100.00,ESE,119,3.0,4.0,34,0.00,,,0.00,,2013-05-25 21:43:00,
2013-05-25 17:53:00,62.0,37.0,-100.00,South,184,1.0,2.0,40,0.00,,,0.00,,2013-05-25 21:53:00,
2013-05-25 18:03:00,63.0,34.0,-100.00,SW,227,2.0,4.0,33,0.00,,,0.00,,2013-05-25 22:03:00,
2013-05-25 18:13:00,63.0,34.0,-100.00,SW,227,2.0,4.0,33,0.00,,,0.00,,2013-05-25 22:13:00,
2013-05-25 18:23:00,65.0,34.0,-100.00,ESE,104,2.0,5.0,32,0.00,,,0.00,,2013-05-25 22:23:00,
2013-05-25 18:32:00,65.0,38.0,-100.00,SW,216,2.0,4.0,36,0.00,,,0.00,,2013-05-25 22:32:00,
2013-05-25 18:42:00,65.0,38.0,-100.00,SW,216,2.0,4.0,36,0.00,,,0.00,,2013-05-25 22:42:00,
2013-05-25 18:52:00,63.0,35.0,-100.00,NE,49,3.0,5.0,35,0.00,,,0.00,,2013-05-25 22:52:00,
2013-05-25 19:02:00,63.0,32.0,-100.00,NE,54,4.0,6.0,32,0.00,,,0.00,,2013-05-25 23:02:00,
2013-05-25 19:12:00,63.0,32.0,-100.00,NE,54,4.0,6.0,32,0.00,,,0.00,,2013-05-25 23:12:00,
2013-05-25 19:22:00,63.0,35.0,-100.00,SE,145,2.0,4.0,35,0.00,,,0.00,,2013-05-25 23:22:00,
2013-05-25 19:32:00,61.0,35.0,-100.00,SSE,165,0.0,2.0,38,0.00,,,0.00,,2013-05-25 23:32:00,
2013-05-25 19:42:00,61.0,35.0,-100.00,SSE,165,0.0,2.0,38,0.00,,,0.00,,2013-05-25 23:42:00,
2013-05-25 19:53:00,61.0,37.0,-100.00,ESE,117,1.0,2.0,41,0.00,,,0.00,,2013-05-25 23:53:00,
2013-05-25 20:02:00,61.0,33.0,-100.00,SW,230,3.0,4.0,36,0.00,,,0.00,,2013-05-26 00:02:00,
2013-05-25 20:11:00,61.0,33.0,-100.00,SW,230,3.0,4.0,36,0.00,,,0.00,,2013-05-26 00:11:00,
2013-05-25 20:22:00,59.0,35.0,-100.00,NNW,342,2.0,3.0,40,0.00,,,0.00,,2013-05-26 00:22:00,
2013-05-25 20:32:00,59.0,38.0,-100.00,NNE,13,2.0,3.0,45,0.00,,,0.00,,2013-05-26 00:32:00,
2013-05-25 20:42:00,59.0,38.0,-100.00,NNE,13,2.0,3.0,45,0.00,,,0.00,,2013-05-26 00:42:00,
2013-05-25 20:53:00,58.0,37.0,-100.00,NE,38,2.0,3.0,45,0.00,,,0.00,,2013-05-26 00:53:00,
2013-05-25 21:01:00,58.0,38.0,-100.00,ENE,58,3.0,4.0,47,0.00,,,0.00,,2013-05-26 01:01:00,
2013-05-25 21:11:00,58.0,38.0,-100.00,ENE,58,3.0,4.0,47,0.00,,,0.00,,2013-05-26 01:11:00,
2013-05-25 21:21:00,57.0,40.0,-100.00,ENE,62,2.0,3.0,53,0.00,,,0.00,,2013-05-26 01:21:00,
2013-05-25 21:32:00,57.0,38.0,-100.00,ENE,69,5.0,6.0,50,0.00,,,0.00,,2013-05-26 01:32:00,
2013-05-25 21:42:00,57.0,38.0,-100.00,ENE,69,5.0,6.0,50,0.00,,,0.00,,2013-05-26 01:42:00,
2013-05-25 21:53:00,56.0,38.0,-100.00,ENE,65,5.0,6.0,50,0.00,,,0.00,,2013-05-26 01:53:00,
2013-05-25 22:02:00,56.0,38.0,-100.00,NE,48,4.0,6.0,53,0.00,,,0.00,,2013-05-26 02:02:00,
2013-05-25 22:11:00,56.0,38.0,-100.00,NE,48,4.0,6.0,53,0.00,,,0.00,,2013-05-26 02:11:00,
2013-05-25 22:21:00,55.0,37.0,-100.00,NNE,23,3.0,4.0,51,0.00,,,0.00,,2013-05-26 02:21:00,
2013-05-25 22:32:00,56.0,37.0,-100.00,NE,52,3.0,5.0,49,0.00,,,0.00,,2013-05-26 02:32:00,
2013-05-25 22:42:00,56.0,37.0,-100.00,NE,52,3.0,5.0,49,0.00,,,0.00,,2013-05-26 02:42:00,
2013-05-25 22:52:00,56.0,38.0,-100.00,ENE,59,2.0,4.0,50,0.00,,,0.00,,2013-05-26 02:52:00,
2013-05-25 23:01:00,56.0,38.0,-100.00,ENE,59,2.0,4.0,50,0.00,,,0.00,,2013-05-26 03:01:00,
2013-05-25 23:11:00,56.0,38.0,-100.00,ENE,59,2.0,4.0,50,0.00,,,0.00,,2013-05-26 03:11:00,
2013-05-25 23:22:00,56.0,40.0,-100.00,NE,54,2.0,2.0,54,0.00,,,0.00,,2013-05-26 03:22:00,
2013-05-25 23:33:00,56.0,40.0,-100.00,East,89,1.0,3.0,55,0.00,,,0.00,,2013-05-26 03:33:00,
2013-05-25 23:43:00,55.0,39.0,-100.00,NE,52,4.0,5.0,53,0.00,,,0.00,,2013-05-26 03:43:00,
2013-05-25 23:53:00,55.0,39.0,-100.00,NE,52,4.0,5.0,53,0.00,,,0.00,,2013-05-26 03:53:00,